| time (UTC) | temp C | wind direction | speed KPH | gust KPH | rain 1hr cm | rain 24hr cm | rain mn cm | humidity % | barometer mb |
| 20260507164257 | 10 | 327 | 8.0 | 14.5 | 0.00 | 0.00 | 0.00 | 49 | 1010.4 |
| 20260507163754 | 10 | 158 | 3.2 | 4.8 | 0.00 | 0.00 | 0.00 | 48 | 1010.5 |
| 20260507163252 | 11 | 200 | 1.6 | 1.6 | 0.00 | 0.00 | 0.00 | 49 | 1010.6 |
| 20260507162747 | 11 | 14 | 3.2 | 6.4 | 0.00 | 0.00 | 0.00 | 47 | 1010.6 |
| 20260507162243 | 10 | 156 | 3.2 | 4.8 | 0.00 | 0.00 | 0.00 | 50 | 1010.6 |
| 20260507161741 | 10 | 274 | 6.4 | 6.4 | 0.00 | 0.00 | 0.00 | 47 | 1010.6 |
| 20260507161237 | 10 | 331 | 6.4 | 9.7 | 0.00 | 0.00 | 0.00 | 51 | 1011.0 |
| 20260507160733 | 10 | 243 | 3.2 | 4.8 | 0.00 | 0.00 | 0.00 | 52 | 1010.8 |
| 20260507160230 | 11 | 77 | 4.8 | 6.4 | 0.00 | 0.00 | 0.00 | 51 | 1010.8 |
| 20260507155726 | 11 | 254 | 1.6 | 3.2 | 0.00 | 0.00 | 0.00 | 47 | 1010.8 |
| 20260507155222 | 11 | 72 | 3.2 | 3.2 | 0.00 | 0.00 | 0.00 | 46 | 1011.0 |
| 20260507154719 | 10 | 253 | 8.0 | 9.7 | 0.00 | 0.00 | 0.00 | 51 | 1010.8 |
| 20260507154216 | 10 | 55 | 3.2 | 3.2 | 0.00 | 0.00 | 0.00 | 49 | 1011.0 |
| 20260507153712 | 10 | 228 | 3.2 | 3.2 | 0.00 | 0.00 | 0.00 | 47 | 1010.9 |
| 20260507153209 | 10 | 27 | 6.4 | 9.7 | 0.00 | 0.00 | 0.00 | 50 | 1011.1 |
| 20260507152706 | 10 | 315 | 3.2 | 4.8 | 0.00 | 0.00 | 0.00 | 53 | 1011.1 |
| 20260507152202 | 10 | 186 | 8.0 | 11.3 | 0.00 | 0.00 | 0.00 | 51 | 1011.4 |
| 20260507151658 | 10 | 325 | 4.8 | 6.4 | 0.00 | 0.00 | 0.00 | 53 | 1011.3 |
| 20260507151154 | 10 | 192 | 8.0 | 12.9 | 0.00 | 0.00 | 0.00 | 58 | 1011.4 |
| 20260507150652 | 9 | 307 | 4.8 | 6.4 | 0.00 | 0.00 | 0.00 | 55 | 1011.3 |
| 20260507150148 | 8 | 251 | 8.0 | 11.3 | 0.00 | 0.00 | 0.00 | 57 | 1011.5 |
| 20260507145644 | 9 | 277 | 6.4 | 6.4 | 0.00 | 0.00 | 0.00 | 55 | 1011.6 |
| 20260507145141 | 10 | 285 | 6.4 | 9.7 | 0.00 | 0.00 | 0.00 | 56 | 1011.5 |
| 20260507144637 | 9 | 215 | 3.2 | 3.2 | 0.00 | 0.00 | 0.00 | 55 | 1011.7 |
| 20260507144136 | 9 | 217 | 3.2 | 4.8 | 0.00 | 0.00 | 0.00 | 55 | 1011.7 |
| 20260507143632 | 9 | 251 | 6.4 | 6.4 | 0.00 | 0.00 | 0.00 | 55 | 1011.6 |
| 20260507143130 | 9 | 171 | 1.6 | 1.6 | 0.00 | 0.00 | 0.00 | 58 | 1011.9 |
| 20260507142625 | 8 | 218 | 11.3 | 20.9 | 0.00 | 0.00 | 0.00 | 57 | 1011.8 |
| 20260507142122 | 8 | 265 | 6.4 | 11.3 | 0.00 | 0.00 | 0.00 | 56 | 1011.8 |
| 20260507141618 | 8 | 319 | 9.7 | 12.9 | 0.00 | 0.00 | 0.00 | 56 | 1011.8 |
| 20260507141115 | 8 | 291 | 1.6 | 3.2 | 0.00 | 0.00 | 0.00 | 57 | 1012.0 |
| 20260507140611 | 8 | 161 | 0.0 | 1.6 | 0.00 | 0.00 | 0.00 | 54 | 1011.8 |
| 20260507140109 | 8 | 231 | 4.8 | 4.8 | 0.00 | 0.00 | 0.00 | 58 | 1011.9 |
| 20260507135606 | 8 | 261 | 4.8 | 9.7 | 0.00 | 0.00 | 0.00 | 56 | 1012.0 |
| 20260507135103 | 8 | 206 | 1.6 | 3.2 | 0.00 | 0.00 | 0.00 | 55 | 1012.1 |
| 20260507134559 | 7 | 2 | 4.8 | 6.4 | 0.00 | 0.00 | 0.00 | 60 | 1012.1 |
| 20260507134056 | 7 | 199 | 6.4 | 11.3 | 0.00 | 0.00 | 0.00 | 58 | 1012.3 |
| 20260507133552 | 7 | 207 | 0.0 | 1.6 | 0.00 | 0.00 | 0.00 | 56 | 1012.1 |
| 20260507133050 | 7 | 213 | 3.2 | 3.2 | 0.00 | 0.00 | 0.00 | 59 | 1012.1 |
| 20260507132546 | 7 | 222 | 1.6 | 3.2 | 0.00 | 0.00 | 0.00 | 60 | 1012.1 |
| 20260507132043 | 7 | 212 | 0.0 | 1.6 | 0.00 | 0.00 | 0.00 | 59 | 1012.3 |
| 20260507131539 | 6 | 198 | 1.6 | 3.2 | 0.00 | 0.00 | 0.00 | 62 | 1012.4 |
| 20260507131037 | 6 | 321 | 3.2 | 4.8 | 0.00 | 0.00 | 0.00 | 62 | 1012.4 |
| 20260507130534 | 6 | 26 | 4.8 | 9.7 | 0.00 | 0.00 | 0.00 | 61 | 1012.1 |
| 20260507130032 | 6 | 327 | 3.2 | 3.2 | 0.00 | 0.00 | 0.00 | 60 | 1012.3 |
| 20260507125530 | 6 | 230 | 3.2 | 3.2 | 0.00 | 0.00 | 0.00 | 57 | 1012.3 |
| 20260507125027 | 6 | 188 | 1.6 | 1.6 | 0.00 | 0.00 | 0.00 | 61 | 1012.1 |
| 20260507124523 | 5 | 262 | 1.6 | 1.6 | 0.00 | 0.00 | 0.00 | 60 | 1012.1 |
| 20260507124021 | 5 | 314 | 1.6 | 3.2 | 0.00 | 0.00 | 0.00 | 59 | 1012.3 |
| 20260507123519 | 5 | 320 | 3.2 | 3.2 | 0.00 | 0.00 | 0.00 | 60 | 1012.3 |
| 20260507123016 | 5 | 214 | 0.0 | 0.0 | 0.00 | 0.00 | 0.00 | 65 | 1012.5 |
| 20260507122516 | 5 | 227 | 1.6 | 1.6 | 0.00 | 0.00 | 0.00 | 69 | 1012.3 |
| 20260507122012 | 4 | 204 | 0.0 | 0.0 | 0.00 | 0.00 | 0.00 | 71 | 1012.3 |
| 20260507121508 | 4 | 225 | 0.0 | 0.0 | 0.00 | 0.00 | 0.00 | 70 | 1012.3 |
| 20260507121004 | 3 | 238 | 1.6 | 1.6 | 0.00 | 0.00 | 0.00 | 73 | 1012.3 |
| 20260507120500 | 3 | 200 | 0.0 | 0.0 | 0.00 | 0.00 | 0.00 | 73 | 1012.1 |
| 20260507115957 | 3 | 213 | 0.0 | 0.0 | 0.00 | 0.00 | 0.00 | 79 | 1012.3 |
| 20260507115454 | 3 | 208 | 0.0 | 0.0 | 0.00 | 0.00 | 0.00 | 80 | 1012.3 |
| 20260507114949 | 3 | 217 | 0.0 | 0.0 | 0.00 | 0.00 | 0.00 | 80 | 1012.1 |
| 20260507114446 | 2 | 221 | 0.0 | 0.0 | 0.00 | 0.00 | 0.00 | 80 | 1012.1 |
| 20260507113943 | 2 | 250 | 0.0 | 0.0 | 0.00 | 0.00 | 0.00 | 83 | 1012.0 |
| 20260507113440 | 2 | 204 | 0.0 | 0.0 | 0.00 | 0.00 | 0.00 | 81 | 1011.9 |
| 20260507112937 | 2 | 215 | 0.0 | 0.0 | 0.00 | 0.00 | 0.00 | 83 | 1012.0 |
| 20260507112435 | 2 | 214 | 1.6 | 1.6 | 0.00 | 0.00 | 0.00 | 84 | 1011.8 |
| 20260507111931 | 2 | 202 | 1.6 | 1.6 | 0.00 | 0.00 | 0.00 | 84 | 1011.8 |
| 20260507111429 | 1 | 301 | 1.6 | 1.6 | 0.00 | 0.00 | 0.00 | 83 | 1011.7 |
| 20260507110925 | 1 | 237 | 0.0 | 1.6 | 0.00 | 0.00 | 0.00 | 84 | 1011.7 |
| 20260507110421 | 1 | 220 | 0.0 | 1.6 | 0.00 | 0.00 | 0.00 | 85 | 1011.5 |
| 20260507105918 | 1 | 219 | 1.6 | 3.2 | 0.00 | 0.00 | 0.00 | 85 | 1011.6 |
| 20260507105415 | 1 | 285 | 1.6 | 3.2 | 0.00 | 0.00 | 0.00 | 86 | 1011.5 |
| 20260507104912 | 1 | 301 | 0.0 | 1.6 | 0.00 | 0.00 | 0.00 | 86 | 1011.6 |
| 20260507104408 | 1 | 214 | 0.0 | 0.0 | 0.00 | 0.00 | 0.00 | 86 | 1011.6 |
| 20260507103904 | 1 | 222 | 0.0 | 0.0 | 0.00 | 0.00 | 0.00 | 87 | 1011.5 |
| 20260507103401 | 1 | 234 | 0.0 | 0.0 | 0.00 | 0.00 | 0.00 | 87 | 1011.4 |
| 20260507102857 | 1 | 217 | 0.0 | 0.0 | 0.00 | 0.00 | 0.00 | 87 | 1011.6 |
| 20260507102354 | 0 | 217 | 0.0 | 0.0 | 0.00 | 0.00 | 0.00 | 87 | 1011.6 |
| 20260507101851 | 1 | 216 | 0.0 | 0.0 | 0.00 | 0.00 | 0.00 | 87 | 1011.4 |
| 20260507101350 | 1 | 218 | 0.0 | 0.0 | 0.00 | 0.00 | 0.00 | 87 | 1011.5 |
| 20260507100848 | 1 | 220 | 0.0 | 0.0 | 0.00 | 0.00 | 0.00 | 86 | 1011.7 |
| 20260507100346 | 1 | 224 | 0.0 | 0.0 | 0.00 | 0.00 | 0.00 | 86 | 1011.4 |
| 20260507095843 | 1 | 226 | 1.6 | 1.6 | 0.00 | 0.00 | 0.00 | 86 | 1011.5 |
| 20260507095340 | 1 | 224 | 3.2 | 3.2 | 0.00 | 0.00 | 0.00 | 86 | 1011.5 |
| 20260507094837 | 1 | 217 | 0.0 | 0.0 | 0.00 | 0.00 | 0.00 | 86 | 1011.5 |
| 20260507094333 | 1 | 208 | 0.0 | 0.0 | 0.00 | 0.00 | 0.00 | 86 | 1011.5 |
| 20260507093830 | 1 | 202 | 0.0 | 0.0 | 0.00 | 0.00 | 0.00 | 85 | 1011.4 |
| 20260507093329 | 1 | 210 | 0.0 | 0.0 | 0.00 | 0.00 | 0.00 | 84 | 1011.4 |
| 20260507092826 | 1 | 216 | 0.0 | 0.0 | 0.00 | 0.00 | 0.00 | 84 | 1011.4 |
| 20260507092323 | 1 | 250 | 3.2 | 3.2 | 0.00 | 0.00 | 0.00 | 85 | 1011.5 |
| 20260507091819 | 1 | 250 | 0.0 | 1.6 | 0.00 | 0.00 | 0.00 | 85 | 1011.3 |
| 20260507091316 | 1 | 236 | 1.6 | 1.6 | 0.00 | 0.00 | 0.00 | 85 | 1011.3 |
| 20260507090811 | 1 | 228 | 1.6 | 1.6 | 0.00 | 0.00 | 0.00 | 84 | 1011.3 |
| 20260507090308 | 1 | 234 | 1.6 | 1.6 | 0.00 | 0.00 | 0.00 | 84 | 1011.5 |
| 20260507085805 | 1 | 221 | 1.6 | 1.6 | 0.00 | 0.00 | 0.00 | 84 | 1011.6 |
| 20260507085306 | 1 | 256 | 1.6 | 3.2 | 0.00 | 0.00 | 0.00 | 84 | 1011.5 |
| 20260507084800 | 1 | 305 | 1.6 | 1.6 | 0.00 | 0.00 | 0.00 | 85 | 1011.5 |
| 20260507084256 | 1 | 203 | 0.0 | 0.0 | 0.00 | 0.00 | 0.00 | 84 | 1011.6 |
| 20260507083754 | 1 | 214 | 1.6 | 1.6 | 0.00 | 0.00 | 0.00 | 84 | 1011.7 |
| 20260507083250 | 1 | 246 | 0.0 | 1.6 | 0.00 | 0.00 | 0.00 | 85 | 1011.6 |
| 20260507082746 | 1 | 214 | 1.6 | 1.6 | 0.00 | 0.00 | 0.00 | 85 | 1011.6 |
| 20260507082242 | 1 | 212 | 0.0 | 1.6 | 0.00 | 0.00 | 0.00 | 85 | 1011.4 |
| 20260507081739 | 1 | 207 | 0.0 | 0.0 | 0.00 | 0.00 | 0.00 | 84 | 1011.5 |
| 20260507081235 | 1 | 211 | 1.6 | 1.6 | 0.00 | 0.00 | 0.00 | 84 | 1011.6 |
| 20260507080732 | 1 | 250 | 0.0 | 1.6 | 0.00 | 0.00 | 0.00 | 83 | 1011.7 |
| 20260507080228 | 1 | 214 | 0.0 | 0.0 | 0.00 | 0.00 | 0.00 | 84 | 1011.5 |
| 20260507075723 | 1 | 247 | 0.0 | 0.0 | 0.00 | 0.00 | 0.00 | 84 | 1011.6 |
| 20260507075219 | 1 | 230 | 0.0 | 0.0 | 0.00 | 0.00 | 0.00 | 84 | 1011.7 |
| 20260507074715 | 1 | 212 | 0.0 | 0.0 | 0.00 | 0.00 | 0.00 | 84 | 1011.7 |
| 20260507074215 | 1 | 212 | 0.0 | 0.0 | 0.00 | 0.00 | 0.00 | 84 | 1011.6 |
| 20260507073710 | 1 | 213 | 0.0 | 0.0 | 0.00 | 0.00 | 0.00 | 83 | 1011.5 |
| 20260507073201 | 2 | 214 | 0.0 | 0.0 | 0.00 | 0.00 | 0.00 | 83 | 1011.7 |
| 20260507072659 | 2 | 227 | 0.0 | 0.0 | 0.00 | 0.00 | 0.00 | 83 | 1011.4 |
| 20260507072156 | 2 | 205 | 0.0 | 0.0 | 0.00 | 0.00 | 0.00 | 82 | 1011.6 |
| 20260507071654 | 2 | 222 | 1.6 | 1.6 | 0.00 | 0.00 | 0.00 | 82 | 1011.6 |
| 20260507071149 | 2 | 213 | 1.6 | 1.6 | 0.00 | 0.00 | 0.00 | 82 | 1011.6 |
| 20260507070646 | 2 | 218 | 0.0 | 1.6 | 0.00 | 0.00 | 0.00 | 82 | 1011.6 |
| 20260507070143 | 2 | 217 | 0.0 | 0.0 | 0.00 | 0.00 | 0.00 | 82 | 1011.7 |
| 20260507065640 | 2 | 262 | 1.6 | 1.6 | 0.00 | 0.00 | 0.00 | 81 | 1011.6 |
| 20260507065137 | 2 | 215 | 0.0 | 0.0 | 0.00 | 0.00 | 0.00 | 81 | 1011.7 |
| 20260507064635 | 2 | 257 | 1.6 | 3.2 | 0.00 | 0.00 | 0.00 | 80 | 1011.4 |
| 20260507064133 | 2 | 259 | 3.2 | 3.2 | 0.00 | 0.00 | 0.00 | 80 | 1011.5 |
| 20260507063630 | 3 | 256 | 0.0 | 1.6 | 0.00 | 0.00 | 0.00 | 79 | 1011.5 |
| 20260507063127 | 3 | 237 | 1.6 | 1.6 | 0.00 | 0.00 | 0.00 | 78 | 1011.3 |
| 20260507062624 | 3 | 291 | 1.6 | 1.6 | 0.00 | 0.00 | 0.00 | 76 | 1011.7 |
| 20260507062121 | 3 | 296 | 1.6 | 3.2 | 0.00 | 0.00 | 0.00 | 76 | 1011.7 |
| 20260507061618 | 3 | 288 | 1.6 | 3.2 | 0.00 | 0.00 | 0.00 | 76 | 1011.6 |
| 20260507061117 | 3 | 279 | 3.2 | 3.2 | 0.00 | 0.00 | 0.00 | 75 | 1011.6 |
| 20260507060614 | 3 | 306 | 3.2 | 4.8 | 0.00 | 0.00 | 0.00 | 75 | 1011.6 |
| 20260507060111 | 3 | 281 | 1.6 | 3.2 | 0.00 | 0.00 | 0.00 | 76 | 1011.6 |
| 20260507055607 | 3 | 287 | 3.2 | 4.8 | 0.00 | 0.00 | 0.00 | 74 | 1011.8 |
| 20260507055103 | 4 | 280 | 1.6 | 3.2 | 0.00 | 0.00 | 0.00 | 74 | 1012.0 |
| 20260507054559 | 4 | 299 | 4.8 | 4.8 | 0.00 | 0.00 | 0.00 | 73 | 1012.0 |
| 20260507054056 | 4 | 282 | 3.2 | 4.8 | 0.00 | 0.00 | 0.00 | 73 | 1012.4 |
| 20260507053554 | 4 | 314 | 4.8 | 6.4 | 0.00 | 0.00 | 0.00 | 72 | 1012.3 |
| 20260507053052 | 4 | 322 | 6.4 | 6.4 | 0.00 | 0.00 | 0.00 | 73 | 1012.4 |
| 20260507052550 | 4 | 304 | 3.2 | 3.2 | 0.00 | 0.00 | 0.00 | 74 | 1012.0 |
| 20260507052046 | 4 | 255 | 3.2 | 3.2 | 0.00 | 0.00 | 0.00 | 72 | 1012.0 |
| 20260507051544 | 4 | 249 | 3.2 | 4.8 | 0.00 | 0.00 | 0.00 | 73 | 1012.3 |
| 20260507051041 | 4 | 267 | 3.2 | 3.2 | 0.00 | 0.00 | 0.00 | 73 | 1012.5 |
| 20260507050537 | 4 | 232 | 3.2 | 3.2 | 0.00 | 0.00 | 0.00 | 74 | 1012.1 |
| 20260507050033 | 4 | 288 | 4.8 | 4.8 | 0.00 | 0.00 | 0.00 | 74 | 1012.3 |
| 20260507045530 | 4 | 14 | 3.2 | 4.8 | 0.00 | 0.00 | 0.00 | 74 | 1012.3 |
| 20260507045028 | 4 | 302 | 3.2 | 3.2 | 0.00 | 0.00 | 0.00 | 74 | 1012.1 |
| 20260507044524 | 4 | 295 | 3.2 | 4.8 | 0.00 | 0.00 | 0.00 | 72 | 1012.3 |
| 20260507044021 | 4 | 292 | 3.2 | 3.2 | 0.00 | 0.00 | 0.00 | 72 | 1012.1 |
| 20260507043517 | 4 | 314 | 4.8 | 4.8 | 0.00 | 0.00 | 0.00 | 71 | 1012.1 |
| 20260507043014 | 4 | 258 | 1.6 | 1.6 | 0.00 | 0.00 | 0.00 | 71 | 1012.3 |
| 20260507042510 | 5 | 271 | 1.6 | 1.6 | 0.00 | 0.00 | 0.00 | 71 | 1012.1 |
| 20260507042006 | 5 | 300 | 3.2 | 3.2 | 0.00 | 0.00 | 0.00 | 70 | 1012.4 |
| 20260507041503 | 5 | 217 | 3.2 | 4.8 | 0.00 | 0.00 | 0.00 | 72 | 1012.0 |
| 20260507040959 | 5 | 325 | 6.4 | 9.7 | 0.00 | 0.00 | 0.00 | 71 | 1012.1 |
| 20260507040455 | 5 | 290 | 3.2 | 3.2 | 0.00 | 0.00 | 0.00 | 71 | 1012.3 |
| 20260507035951 | 5 | 318 | 1.6 | 3.2 | 0.00 | 0.00 | 0.00 | 71 | 1012.1 |
| 20260507035448 | 5 | 278 | 1.6 | 3.2 | 0.00 | 0.00 | 0.00 | 71 | 1012.1 |
| 20260507034945 | 5 | 326 | 9.7 | 12.9 | 0.00 | 0.00 | 0.00 | 69 | 1011.8 |
| 20260507034442 | 5 | 309 | 1.6 | 3.2 | 0.00 | 0.00 | 0.00 | 70 | 1011.9 |
| 20260507033940 | 5 | 331 | 1.6 | 3.2 | 0.00 | 0.00 | 0.00 | 71 | 1012.3 |
| 20260507033438 | 5 | 264 | 3.2 | 3.2 | 0.00 | 0.00 | 0.00 | 69 | 1012.1 |
| 20260507032934 | 5 | 263 | 3.2 | 3.2 | 0.00 | 0.00 | 0.00 | 66 | 1012.0 |
| 20260507032431 | 5 | 244 | 0.0 | 1.6 | 0.00 | 0.00 | 0.00 | 68 | 1011.8 |
| 20260507031927 | 5 | 316 | 3.2 | 3.2 | 0.00 | 0.00 | 0.00 | 69 | 1011.9 |
| 20260507031426 | 5 | 309 | 3.2 | 4.8 | 0.00 | 0.00 | 0.00 | 68 | 1011.9 |
| 20260507030920 | 5 | 299 | 1.6 | 3.2 | 0.00 | 0.00 | 0.00 | 69 | 1012.0 |
| 20260507030418 | 5 | 256 | 0.0 | 1.6 | 0.00 | 0.00 | 0.00 | 68 | 1011.9 |
| 20260507025915 | 5 | 295 | 1.6 | 3.2 | 0.00 | 0.00 | 0.00 | 69 | 1011.8 |
| 20260507025412 | 5 | 219 | 0.0 | 0.0 | 0.00 | 0.00 | 0.00 | 71 | 1011.7 |
| 20260507024910 | 5 | 228 | 1.6 | 3.2 | 0.00 | 0.00 | 0.00 | 68 | 1011.7 |
| 20260507024407 | 5 | 296 | 1.6 | 3.2 | 0.00 | 0.00 | 0.00 | 68 | 1011.6 |
| 20260507023903 | 5 | 272 | 3.2 | 3.2 | 0.00 | 0.00 | 0.00 | 67 | 1011.6 |
| 20260507023359 | 5 | 218 | 1.6 | 1.6 | 0.00 | 0.00 | 0.00 | 72 | 1011.4 |
| 20260507022857 | 5 | 299 | 3.2 | 3.2 | 0.00 | 0.00 | 0.00 | 70 | 1011.7 |
| 20260507022353 | 5 | 291 | 4.8 | 4.8 | 0.00 | 0.00 | 0.00 | 69 | 1011.7 |
| 20260507021849 | 5 | 306 | 3.2 | 4.8 | 0.00 | 0.00 | 0.00 | 70 | 1011.6 |
| 20260507021344 | 5 | 235 | 1.6 | 1.6 | 0.00 | 0.00 | 0.00 | 69 | 1011.9 |
| 20260507020843 | 5 | 153 | 3.2 | 4.8 | 0.00 | 0.00 | 0.00 | 73 | 1011.5 |
| 20260507020339 | 5 | 237 | 8.0 | 14.5 | 0.00 | 0.00 | 0.00 | 69 | 1011.3 |
| 20260507015836 | 5 | 279 | 3.2 | 4.8 | 0.00 | 0.00 | 0.00 | 70 | 1011.6 |
| 20260507015334 | 5 | 249 | 6.4 | 6.4 | 0.00 | 0.00 | 0.00 | 70 | 1011.5 |
| 20260507014831 | 5 | 320 | 6.4 | 6.4 | 0.00 | 0.00 | 0.00 | 71 | 1011.6 |
| 20260507014327 | 5 | 309 | 4.8 | 12.9 | 0.00 | 0.00 | 0.00 | 71 | 1011.8 |
| 20260507013823 | 6 | 313 | 4.8 | 4.8 | 0.00 | 0.00 | 0.00 | 70 | 1012.0 |
| 20260507013321 | 6 | 334 | 8.0 | 11.3 | 0.00 | 0.00 | 0.00 | 72 | 1011.9 |
| 20260507012818 | 6 | 305 | 6.4 | 9.7 | 0.00 | 0.00 | 0.00 | 73 | 1012.1 |
| 20260507012314 | 6 | 172 | 4.8 | 6.4 | 0.00 | 0.00 | 0.00 | 70 | 1012.3 |
| 20260507011811 | 6 | 335 | 6.4 | 11.3 | 0.00 | 0.00 | 0.00 | 71 | 1012.0 |
| 20260507011308 | 6 | 296 | 3.2 | 9.7 | 0.00 | 0.00 | 0.00 | 72 | 1012.3 |
| 20260507010808 | 6 | 296 | 8.0 | 9.7 | 0.00 | 0.00 | 0.00 | 72 | 1012.1 |
| 20260507010304 | 6 | 312 | 3.2 | 6.4 | 0.00 | 0.00 | 0.00 | 73 | 1011.9 |
| 20260507005801 | 6 | 290 | 8.0 | 14.5 | 0.00 | 0.00 | 0.00 | 73 | 1011.8 |
| 20260507005257 | 6 | 321 | 3.2 | 4.8 | 0.00 | 0.00 | 0.00 | 73 | 1012.3 |
| 20260507004754 | 6 | 316 | 3.2 | 6.4 | 0.00 | 0.00 | 0.00 | 77 | 1011.9 |
| 20260507004252 | 6 | 212 | 1.6 | 3.2 | 0.00 | 0.00 | 0.00 | 80 | 1011.7 |
| 20260507003748 | 7 | 306 | 3.2 | 3.2 | 0.00 | 0.00 | 0.00 | 78 | 1011.9 |
| 20260507003243 | 7 | 242 | 4.8 | 6.4 | 0.00 | 0.00 | 0.00 | 81 | 1011.6 |
| 20260507002740 | 7 | 334 | 3.2 | 3.2 | 0.00 | 0.00 | 0.00 | 84 | 1011.9 |
| 20260507002236 | 7 | 323 | 4.8 | 4.8 | 0.00 | 0.00 | 0.00 | 85 | 1011.7 |
| 20260507001733 | 7 | 331 | 3.2 | 4.8 | 0.00 | 0.00 | 0.00 | 85 | 1011.5 |
| 20260507001230 | 7 | 262 | 1.6 | 3.2 | 0.00 | 0.00 | 0.00 | 85 | 1011.6 |
| 20260507000726 | 7 | 32 | 4.8 | 6.4 | 0.00 | 0.00 | 0.00 | 86 | 1011.5 |
| 20260507000222 | 7 | 297 | 4.8 | 4.8 | 0.00 | 0.00 | 0.00 | 85 | 1011.1 |
| 20260506235719 | 7 | 308 | 6.4 | 6.4 | 0.00 | 0.00 | 0.00 | 84 | 1011.2 |
| 20260506235214 | 7 | 353 | 3.2 | 3.2 | 0.00 | 0.00 | 0.00 | 86 | 1011.3 |
| 20260506234712 | 7 | 223 | 1.6 | 3.2 | 0.00 | 0.00 | 0.00 | 86 | 1011.0 |
| 20260506234209 | 7 | 294 | 3.2 | 4.8 | 0.00 | 0.00 | 0.00 | 86 | 1010.9 |
| 20260506233707 | 7 | 313 | 3.2 | 4.8 | 0.00 | 0.00 | 0.00 | 86 | 1010.8 |
| 20260506233203 | 7 | 212 | 1.6 | 3.2 | 0.00 | 0.00 | 0.00 | 87 | 1010.9 |
| 20260506232659 | 7 | 324 | 3.2 | 6.4 | 0.00 | 0.00 | 0.00 | 87 | 1010.9 |
| 20260506232154 | 7 | 229 | 1.6 | 1.6 | 0.00 | 0.00 | 0.00 | 87 | 1010.6 |
| 20260506231652 | 7 | 287 | 1.6 | 3.2 | 0.00 | 0.00 | 0.00 | 86 | 1010.4 |
| 20260506231150 | 7 | 230 | 0.0 | 1.6 | 0.00 | 0.00 | 0.00 | 86 | 1010.8 |
| 20260506230647 | 7 | 318 | 1.6 | 3.2 | 0.00 | 0.00 | 0.00 | 85 | 1010.5 |
| 20260506230143 | 7 | 211 | 3.2 | 3.2 | 0.00 | 0.00 | 0.00 | 85 | 1010.5 |
| 20260506225640 | 8 | 282 | 4.8 | 4.8 | 0.00 | 0.00 | 0.00 | 84 | 1010.5 |
| 20260506225137 | 8 | 207 | 3.2 | 4.8 | 0.00 | 0.00 | 0.00 | 86 | 1010.6 |
| 20260506224633 | 8 | 274 | 3.2 | 3.2 | 0.00 | 0.00 | 0.00 | 85 | 1010.3 |
| 20260506224130 | 8 | 275 | 1.6 | 3.2 | 0.00 | 0.00 | 0.00 | 87 | 1010.6 |
| 20260506223626 | 8 | 238 | 3.2 | 4.8 | 0.00 | 0.00 | 0.00 | 87 | 1010.3 |
| 20260506223122 | 8 | 309 | 1.6 | 3.2 | 0.00 | 0.00 | 0.00 | 88 | 1010.2 |
| 20260506222620 | 8 | 98 | 3.2 | 4.8 | 0.00 | 0.00 | 0.00 | 88 | 1010.3 |
| 20260506222116 | 8 | 296 | 1.6 | 3.2 | 0.00 | 0.00 | 0.00 | 87 | 1010.5 |
| 20260506221614 | 8 | 287 | 3.2 | 6.4 | 0.00 | 0.00 | 0.00 | 86 | 1010.4 |
| 20260506221111 | 8 | 307 | 1.6 | 4.8 | 0.00 | 0.00 | 0.00 | 88 | 1010.5 |
| 20260506220608 | 8 | 334 | 4.8 | 6.4 | 0.00 | 0.00 | 0.00 | 86 | 1010.4 |
| 20260506215600 | 8 | 190 | 3.2 | 3.2 | 0.00 | 0.00 | 0.00 | 90 | 1010.2 |
| 20260506215055 | 8 | 315 | 4.8 | 6.4 | 0.00 | 0.00 | 0.00 | 87 | 1009.9 |
| 20260506214552 | 8 | 296 | 6.4 | 9.7 | 0.00 | 0.00 | 0.00 | 87 | 1009.7 |
| 20260506214050 | 8 | 298 | 6.4 | 6.4 | 0.00 | 0.00 | 0.00 | 87 | 1009.7 |
| 20260506213548 | 8 | 314 | 4.8 | 4.8 | 0.00 | 0.00 | 0.00 | 88 | 1009.6 |
| 20260506213045 | 8 | 269 | 4.8 | 6.4 | 0.00 | 0.00 | 0.00 | 88 | 1009.7 |
| 20260506212541 | 8 | 293 | 1.6 | 3.2 | 0.00 | 0.00 | 0.00 | 89 | 1009.9 |
| 20260506212036 | 8 | 30 | 6.4 | 9.7 | 0.00 | 0.00 | 0.00 | 89 | 1009.7 |
| 20260506211532 | 8 | 249 | 1.6 | 3.2 | 0.00 | 0.00 | 0.00 | 89 | 1009.7 |
| 20260506211030 | 8 | 300 | 3.2 | 4.8 | 0.00 | 0.00 | 0.00 | 90 | 1009.5 |
| 20260506210526 | 8 | 277 | 3.2 | 3.2 | 0.00 | 0.00 | 0.00 | 93 | 1009.3 |
| 20260506210023 | 7 | 17 | 4.8 | 4.8 | 0.00 | 0.00 | 0.00 | 95 | 1009.4 |
| 20260506205520 | 7 | 322 | 3.2 | 3.2 | 0.00 | 0.00 | 0.00 | 96 | 1009.3 |
| 20260506205015 | 7 | 296 | 4.8 | 9.7 | 0.00 | 0.00 | 0.00 | 97 | 1009.3 |
| 20260506204514 | 7 | 304 | 8.0 | 11.3 | 0.00 | 0.00 | 0.00 | 96 | 1009.4 |
| 20260506204010 | 7 | 316 | 9.7 | 14.5 | 0.00 | 0.00 | 0.00 | 95 | 1009.4 |
| 20260506203508 | 8 | 237 | 4.8 | 6.4 | 0.00 | 0.00 | 0.00 | 94 | 1009.5 |
| 20260506203004 | 8 | 236 | 1.6 | 3.2 | 0.00 | 0.00 | 0.00 | 93 | 1009.5 |
| 20260506202502 | 8 | 297 | 3.2 | 4.8 | 0.00 | 0.00 | 0.00 | 91 | 1009.5 |
| 20260506201952 | 8 | 250 | 3.2 | 4.8 | 0.00 | 0.00 | 0.00 | 91 | 1009.5 |
| 20260506201450 | 8 | 290 | 6.4 | 9.7 | 0.00 | 0.00 | 0.00 | 92 | 1009.4 |
| 20260506200946 | 8 | 286 | 9.7 | 12.9 | 0.00 | 0.00 | 0.00 | 92 | 1009.1 |
| 20260506200442 | 8 | 259 | 3.2 | 3.2 | 0.00 | 0.00 | 0.00 | 93 | 1009.1 |
| 20260506195939 | 8 | 213 | 1.6 | 3.2 | 0.00 | 0.00 | 0.00 | 94 | 1008.9 |
| 20260506195436 | 8 | 355 | 4.8 | 9.7 | 0.00 | 0.00 | 0.00 | 94 | 1009.0 |
| 20260506194932 | 8 | 290 | 1.6 | 3.2 | 0.00 | 0.00 | 0.00 | 94 | 1009.0 |
| 20260506194430 | 8 | 296 | 9.7 | 14.5 | 0.00 | 0.00 | 0.00 | 94 | 1008.8 |
| 20260506193927 | 8 | 265 | 6.4 | 9.7 | 0.00 | 0.00 | 0.00 | 95 | 1008.6 |
| 20260506193424 | 8 | 207 | 0.0 | 1.6 | 0.00 | 0.00 | 0.00 | 95 | 1008.7 |
| 20260506192920 | 8 | 254 | 9.7 | 11.3 | 0.00 | 0.00 | 0.00 | 94 | 1008.9 |
| 20260506192417 | 8 | 8 | 6.4 | 6.4 | 0.00 | 0.00 | 0.00 | 95 | 1008.7 |
| 20260506191914 | 8 | 297 | 11.3 | 16.1 | 0.00 | 0.00 | 0.00 | 96 | 1008.5 |
| 20260506191410 | 8 | 313 | 4.8 | 4.8 | 0.00 | 0.00 | 0.00 | 97 | 1008.6 |
| 20260506190908 | 8 | 305 | 8.0 | 9.7 | 0.00 | 0.00 | 0.00 | 97 | 1008.4 |
| 20260506190404 | 8 | 288 | 4.8 | 6.4 | 0.00 | 0.00 | 0.00 | 96 | 1008.4 |
| 20260506185901 | 8 | 330 | 9.7 | 16.1 | 0.00 | 0.00 | 0.00 | 97 | 1008.5 |
| 20260506185358 | 9 | 232 | 3.2 | 4.8 | 0.00 | 0.00 | 0.00 | 98 | 1008.5 |
| 20260506184855 | 10 | 293 | 1.6 | 3.2 | 0.00 | 0.00 | 0.00 | 99 | 1008.3 |
| 20260506184352 | 8 | 302 | 3.2 | 4.8 | 0.00 | 0.00 | 0.00 | 99 | 1008.5 |
| 20260506183849 | 8 | 288 | 4.8 | 6.4 | 0.00 | 0.00 | 0.00 | 99 | 1008.4 |
| 20260506183344 | 8 | 311 | 4.8 | 6.4 | 0.00 | 0.00 | 0.00 | 99 | 1008.4 |
| 20260506182842 | 9 | 286 | 4.8 | 6.4 | 0.00 | 0.00 | 0.00 | 99 | 1008.2 |
| 20260506182340 | 8 | 287 | 9.7 | 14.5 | 0.00 | 0.00 | 0.00 | 99 | 1008.5 |
| 20260506181837 | 8 | 274 | 3.2 | 4.8 | 0.00 | 0.00 | 0.00 | 99 | 1008.4 |
| 20260506181335 | 9 | 104 | 8.0 | 9.7 | 0.00 | 0.00 | 0.00 | 99 | 1008.3 |
| 20260506180831 | 9 | 228 | 1.6 | 3.2 | 0.00 | 0.00 | 0.00 | 99 | 1008.2 |
| 20260506180327 | 9 | 223 | 8.0 | 9.7 | 0.00 | 0.00 | 0.00 | 99 | 1008.3 |
| 20260506175823 | 9 | 332 | 6.4 | 6.4 | 0.00 | 0.00 | 0.00 | 99 | 1008.4 |
| 20260506175320 | 9 | 195 | 4.8 | 6.4 | 0.00 | 0.00 | 0.00 | 99 | 1008.1 |
| 20260506174818 | 10 | 245 | 3.2 | 4.8 | 0.00 | 0.00 | 0.00 | 99 | 1008.3 |
| 20260506174315 | 9 | 352 | 8.0 | 11.3 | 0.00 | 0.00 | 0.00 | 99 | 1008.3 |
| 20260506173812 | 9 | 283 | 4.8 | 4.8 | 0.00 | 0.00 | 0.00 | 99 | 1008.1 |
| 20260506173309 | 9 | 299 | 3.2 | 6.4 | 0.00 | 0.00 | 0.00 | 99 | 1008.0 |
| 20260506172806 | 10 | 210 | 1.6 | 1.6 | 0.00 | 0.00 | 0.00 | 99 | 1007.8 |
| 20260506172306 | 9 | 253 | 3.2 | 3.2 | 0.00 | 0.00 | 0.00 | 99 | 1008.1 |
| 20260506171800 | 9 | 316 | 9.7 | 12.9 | 0.00 | 0.00 | 0.00 | 99 | 1007.9 |
| 20260506171257 | 10 | 324 | 6.4 | 6.4 | 0.00 | 0.00 | 0.00 | 99 | 1008.0 |
| 20260506170755 | 10 | 303 | 8.0 | 9.7 | 0.00 | 0.00 | 0.00 | 99 | 1007.8 |
| 20260506170251 | 10 | 234 | 8.0 | 12.9 | 0.00 | 0.00 | 0.00 | 99 | 1007.7 |
| 20260506165749 | 10 | 217 | 3.2 | 3.2 | 0.00 | 0.00 | 0.00 | 99 | 1007.8 |
| 20260506165246 | 10 | 310 | 3.2 | 4.8 | 0.00 | 0.00 | 0.00 | 99 | 1007.8 |
| 20260506164743 | 10 | 254 | 1.6 | 1.6 | 0.00 | 0.00 | 0.00 | 99 | 1007.8 |